Hourly Data Report for September 18, 2017

All times are specified in Local Standard Time (LST). Add 1 hour to adjust for Daylight Saving Time where and when it is observed.

ST. STEPHEN
NEW BRUNSWICK

45°12'36.600" N
67°15'10.300" W
26.10 m
8104935
71607
WSS

Download Data

Hourly Data (September 2017)
Hourly Data Report for September 18, 2017
Temp Definition
°C
Dew Point Temp Definition
°C
Rel Hum Definition
%
Wind Dir Definition
10's deg

Wind Spd Definition
km/h
Visibility Definition
km
Stn Press Definition
kPa
Hmdx Definition


Wind Chill Definition


Weather Definition


TIME
00:00 14.6 14.1 96 10 3   101.85     LegendNANA
01:00 14.3 13.7 97 11 6   101.88     LegendNANA
02:00 14.1 13.6 97 11 5   101.89     LegendNANA
03:00 13.7 13.2 97 10 6   101.88     LegendNANA
04:00 13.4 13.0 97 11 6   101.89     LegendNANA
05:00 13.3 12.9 97 11 4   101.91     LegendNANA
06:00 13.1 12.6 97 11 4   101.95     LegendNANA
07:00 13.3 12.8 97 10 5   101.99     LegendNANA
08:00 13.5 13.1 97 9 5   102.00     LegendNANA
09:00 13.9 13.5 97 12 6   102.05     LegendNANA
10:00 14.1 13.6 97 11 8   102.08     LegendNANA
11:00 14.4 13.4 94 9 6   102.09     LegendNANA
12:00 15.0 13.6 91 9 4   102.07     LegendNANA
13:00 15.6 13.9 89 7 5   102.05     LegendNANA
14:00 16.0 14.0 88 7 7   102.03     LegendNANA
15:00 16.5 14.2 87 10 6   102.03     LegendNANA
16:00 16.1 14.2 89 12 8   102.04     LegendNANA
17:00 15.5 14.0 91 12 6   102.06     LegendNANA
18:00 14.6 13.7 94 10 6   102.07     LegendNANA
19:00 14.3 13.5 95 11 4   102.07     LegendNANA
20:00 14.3 13.7 96 11 3   102.09     LegendNANA
21:00 14.4 13.8 96 12 2   102.11     LegendNANA
22:00 14.4 13.8 96 11 2   102.13     LegendNANA
23:00 14.5 14.0 97 13 2   102.10     LegendNANA

Notes on Data Quality.

Legend

  • E = Estimated
  • M = Missing
  • NA = Not Available
  • ‡ = Partner data that is not subject to review by the National Climate Archives
Date modified: